This is the latest recevied weather packets stored in our database for station/object KG7BDA. If no packets are shown the sender has not sent any weather packets the latest 10 day(s).
| Time | Temp. | Humidity | Pressure | Rain* | Wind** | Luminosity | Snow |
|---|---|---|---|---|---|---|---|
| 1778113283 | 23.89° C | 30% | 1016.1 hPa | 0 mm | - | - | - |
| 1778112924 | 23.33° C | 32% | 1016.1 hPa | 0 mm | - | - | - |
| 1778112563 | 23.33° C | 32% | 1016.1 hPa | 0 mm | - | - | - |
| 1778110044 | 23.33° C | 30% | 1016.8 hPa | 0 mm | - | - | - |
| 1778109324 | 22.78° C | 33% | 1016.9 hPa | 0 mm | - | - | - |
| 1778108963 | 22.78° C | 33% | 1017 hPa | 0 mm | - | - | - |
| 1778108603 | 22.78° C | 32% | 1017.2 hPa | 0 mm | - | - | - |
| 1778108244 | 22.78° C | 31% | 1017.3 hPa | 0 mm | - | - | - |
| 1778107883 | 22.78° C | 32% | 1017.5 hPa | 0 mm | - | - | - |
| 1778107523 | 22.22° C | 32% | 1017.7 hPa | 0 mm | - | - | - |
| 1778107163 | 22.78° C | 31% | 1017.8 hPa | 0 mm | - | - | - |
| 1778106803 | 22.22° C | 31% | 1018 hPa | 0 mm | - | - | - |
| 1778106443 | 22.22° C | 31% | 1018 hPa | 0 mm | - | - | - |
| 1778106127 | 22.22° C | 31% | 1018 hPa | 0 mm | - | - | - |
| 1778106083 | 22.22° C | 31% | 1018 hPa | 0 mm | - | - | - |
| 1778105723 | 22.22° C | 32% | 1018.2 hPa | 0 mm | - | - | - |
| 1778105363 | 22.22° C | 30% | 1018.3 hPa | 0 mm | - | - | - |
| 1778105003 | 22.22° C | 32% | 1018.4 hPa | 0 mm | - | - | - |
| 1778104644 | 22.22° C | 30% | 1018.5 hPa | 0 mm | - | - | - |
| 1778104315 | 22.22° C | 33% | 1018.4 hPa | 0 mm | - | - | - |
| 1778104283 | 22.22° C | 33% | 1018.4 hPa | 0 mm | - | - | - |
| 1778103923 | 21.67° C | 31% | 1018.5 hPa | 0 mm | - | - | - |
| 1778103563 | 21.67° C | 32% | 1018.7 hPa | 0 mm | - | - | - |
| 1778103203 | 21.67° C | 29% | 1018.8 hPa | 0 mm | - | - | - |
| 1778102843 | 21.67° C | 31% | 1019 hPa | 0 mm | - | - | - |
* Rain latest hour (hover to see other rain measurements)
** Current wind speed in m/s (hover to see current wind gust speed)